Weather History for KBLM - December, 2012

Change the Weather History Date:

Sunday, December 23, 2012

  Actual Average Record
Temperature  
Mean Temperature 36 °F -  
Max Temperature 42 °F 39 °F 62 °F (2013)
Min Temperature 30 °F 26 °F 8 °F (2000)
Degree Days  
Heating Degree Days 29    
Moisture  
Dew Point 15 °F    
Average Humidity 43    
Maximum Humidity 64    
Minimum Humidity 29    
Precipitation  
Precipitation 0.00 in - - ()
Sea Level Pressure  
Sea Level Pressure 29.93 in    
Wind  
Wind Speed 10 mph (WSW)    
Max Wind Speed 14 mph    
Max Gust Speed 21 mph    
Visibility 10 miles    
Events      
Averages and records for this station are not official NWS values.
T = Trace of Precipitation, MM = Missing Value Source: NWS Daily Summary

Daily Weather History Graph

Daily Weather History Graph

Search for Another Location

Airport or City:

Trip Planner

Search our weather history database for the weather conditions in past years. The results will help you decide how hot, cold, wet, or windy it might be!

Date:

Astronomy

Dec. 23, 2012 Rise Set
Actual Time 7:16 AM EST 4:35 PM EST
Civil Twilight 6:45 AM EST 5:05 PM EST
Nautical Twilight 6:11 AM EST 5:40 PM EST
Astronomical Twilight 5:38 AM EST 6:13 PM EST
Moon 1:24 PM EST (12/23) 2:56 AM EST (12/23)
Length of Visible Light 10h 20m
Length of Day
9h 18m
Waxing Gibbous, 81% of the Moon is Illuminated
Dec 23
Waxing Gibbous
Dec 28
Full
Jan 4
Last Quarter
Jan 11
New
Jan 18
First Quarter

Hourly Weather History & Observations

Time (EST) Temp. Windchill Dew Point Humidity Pressure Visibility Wind Dir Wind Speed Gust Speed Precip Events Conditions
12:15 AM 35.6 °F 27.1 °F 12.2 °F 38% 29.87 in 10.0 mi West 12.7 mph 18.4 mph N/A   Scattered Clouds
12:35 AM 35.6 °F 26.6 °F 12.2 °F 38% 29.87 in 10.0 mi West 13.8 mph 19.6 mph N/A   Overcast
12:55 AM 35.6 °F 28.6 °F 12.2 °F 38% 29.88 in 10.0 mi West 9.2 mph 17.3 mph N/A   Overcast
1:15 AM 35.6 °F 28.0 °F 12.2 °F 38% 29.88 in 10.0 mi West 10.4 mph 17.3 mph N/A   Overcast
1:35 AM 35.6 °F 27.1 °F 12.2 °F 38% 29.90 in 10.0 mi West 12.7 mph 18.4 mph N/A   Overcast
1:55 AM 35.6 °F 27.5 °F 12.2 °F 38% 29.90 in 10.0 mi West 11.5 mph 18.4 mph N/A   Overcast
2:15 AM 35.6 °F 27.1 °F 12.2 °F 38% 29.91 in 10.0 mi West 12.7 mph 17.3 mph N/A   Overcast
2:35 AM 35.6 °F 28.0 °F 14.0 °F 41% 29.92 in 10.0 mi West 10.4 mph 16.1 mph N/A   Overcast
2:55 AM 35.6 °F 27.5 °F 14.0 °F 41% 29.93 in 10.0 mi West 11.5 mph - N/A   Overcast
3:15 AM 35.6 °F 28.0 °F 14.0 °F 41% 29.93 in 10.0 mi West 10.4 mph 20.7 mph N/A   Overcast
3:35 AM 35.6 °F 28.0 °F 14.0 °F 41% 29.93 in 10.0 mi West 10.4 mph 17.3 mph N/A   Overcast
3:55 AM 35.6 °F 28.0 °F 12.2 °F 38% 29.93 in 10.0 mi West 10.4 mph - N/A   Overcast
4:15 AM 35.6 °F 28.0 °F 12.2 °F 38% 29.93 in 10.0 mi West 10.4 mph 20.7 mph N/A   Overcast
4:35 AM 35.6 °F 28.0 °F 12.2 °F 38% 29.93 in 10.0 mi West 10.4 mph 17.3 mph N/A   Overcast
4:55 AM 33.8 °F 26.4 °F 12.2 °F 41% 29.94 in 10.0 mi West 9.2 mph - N/A   Partly Cloudy
5:15 AM 33.8 °F 25.8 °F 12.2 °F 41% 29.94 in 10.0 mi West 10.4 mph - N/A   Partly Cloudy
5:35 AM 33.8 °F 25.8 °F 15.8 °F 48% 29.95 in 10.0 mi West 10.4 mph 16.1 mph N/A   Scattered Clouds
5:55 AM 33.8 °F 25.8 °F 12.2 °F 41% 29.95 in 10.0 mi West 10.4 mph 17.3 mph N/A   Mostly Cloudy
6:15 AM 33.8 °F 26.4 °F 12.2 °F 41% 29.96 in 10.0 mi West 9.2 mph - N/A   Overcast
6:35 AM 33.8 °F 25.8 °F 12.2 °F 41% 29.97 in 10.0 mi West 10.4 mph - N/A   Overcast
6:55 AM 33.8 °F 27.0 °F 12.2 °F 41% 29.97 in 10.0 mi West 8.1 mph - N/A   Scattered Clouds
7:15 AM 33.8 °F 27.0 °F 15.8 °F 48% 29.98 in 10.0 mi WSW 8.1 mph - N/A   Clear
7:35 AM 33.8 °F 26.4 °F 15.8 °F 48% 29.98 in 10.0 mi WSW 9.2 mph - N/A   Clear
7:55 AM 33.8 °F 27.0 °F 15.8 °F 48% 29.98 in 10.0 mi WSW 8.1 mph - N/A   Clear
8:15 AM 33.8 °F 26.4 °F 15.8 °F 48% 29.99 in 10.0 mi WSW 9.2 mph - N/A   Clear
8:35 AM 33.8 °F 27.0 °F 17.6 °F 52% 29.99 in 10.0 mi West 8.1 mph - N/A   Clear
8:55 AM 35.6 °F 28.0 °F 17.6 °F 48% 29.99 in 10.0 mi West 10.4 mph 18.4 mph N/A   Clear
9:15 AM 35.6 °F 27.1 °F 15.8 °F 44% 29.99 in 10.0 mi West 12.7 mph - N/A   Clear
9:35 AM 35.6 °F 27.5 °F 15.8 °F 44% 29.99 in 10.0 mi West 11.5 mph - N/A   Clear
9:55 AM 35.6 °F 26.6 °F 15.8 °F 44% 29.99 in 10.0 mi West 13.8 mph 20.7 mph N/A   Clear
10:15 AM 37.4 °F 29.3 °F 15.8 °F 41% 29.98 in 10.0 mi WSW 12.7 mph - N/A   Clear
10:35 AM 37.4 °F 29.3 °F 17.6 °F 45% 29.97 in 10.0 mi West 12.7 mph 16.1 mph N/A   Clear
10:55 AM 37.4 °F 29.3 °F 17.6 °F 45% 29.96 in 10.0 mi West 12.7 mph 18.4 mph N/A   Clear
11:15 AM 39.2 °F 31.6 °F 19.4 °F 45% 29.96 in 10.0 mi West 12.7 mph - N/A   Clear
11:35 AM 39.2 °F 32.5 °F 17.6 °F 42% 29.95 in 10.0 mi West 10.4 mph - N/A   Clear
11:55 AM 39.2 °F 32.0 °F 17.6 °F 42% 29.94 in 10.0 mi West 11.5 mph - N/A   Clear
12:15 PM 39.2 °F 31.6 °F 15.8 °F 39% 29.92 in 10.0 mi WSW 12.7 mph 18.4 mph N/A   Clear
12:35 PM 41.0 °F 35.2 °F 15.8 °F 36% 29.92 in 10.0 mi WSW 9.2 mph 18.4 mph N/A   Clear
12:55 PM 41.0 °F 33.9 °F 14.0 °F 33% 29.90 in 10.0 mi WSW 12.7 mph 19.6 mph N/A   Clear
1:15 PM 41.0 °F 34.3 °F 12.2 °F 31% 29.90 in 10.0 mi West 11.5 mph 16.1 mph N/A   Clear
1:35 PM 42.8 °F 36.6 °F 14.0 °F 31% 29.89 in 10.0 mi WNW 11.5 mph - N/A   Clear
1:55 PM 41.0 °F 34.3 °F 14.0 °F 33% 29.89 in 10.0 mi West 11.5 mph - N/A   Clear
2:15 PM 42.8 °F 36.6 °F 12.2 °F 29% 29.89 in 10.0 mi West 11.5 mph 17.3 mph N/A   Clear
2:35 PM 42.8 °F 37.0 °F 12.2 °F 29% 29.89 in 10.0 mi West 10.4 mph - N/A   Clear
2:55 PM 42.8 °F 37.0 °F 12.2 °F 29% 29.88 in 10.0 mi WSW 10.4 mph - N/A   Clear
3:15 PM 42.8 °F 37.5 °F 12.2 °F 29% 29.88 in 10.0 mi WSW 9.2 mph - N/A   Clear
3:35 PM 42.8 °F 37.5 °F 12.2 °F 29% 29.89 in 10.0 mi WSW 9.2 mph - N/A   Clear
3:55 PM 42.8 °F 37.5 °F 12.2 °F 29% 29.89 in 10.0 mi WSW 9.2 mph - N/A   Clear
4:15 PM 41.0 °F 37.1 °F 15.8 °F 36% 29.89 in 10.0 mi WSW 5.8 mph - N/A   Clear
4:35 PM 39.2 °F 35.9 °F 17.6 °F 42% 29.89 in 10.0 mi SW 4.6 mph - N/A   Clear
4:55 PM 39.2 °F 34.2 °F 17.6 °F 42% 29.90 in 10.0 mi SW 6.9 mph - N/A   Clear
5:15 PM 39.2 °F 35.0 °F 17.6 °F 42% 29.91 in 10.0 mi SW 5.8 mph - N/A   Clear
5:35 PM 39.2 °F 35.9 °F 17.6 °F 42% 29.91 in 10.0 mi WSW 4.6 mph - N/A   Clear
5:55 PM 37.4 °F 34.9 °F 17.6 °F 45% 29.91 in 10.0 mi WSW 3.5 mph - N/A   Clear
6:15 PM 37.4 °F 32.8 °F 17.6 °F 45% 29.92 in 10.0 mi SW 5.8 mph - N/A   Clear
6:35 PM 37.4 °F 31.4 °F 17.6 °F 45% 29.92 in 10.0 mi SW 8.1 mph - N/A   Clear
6:55 PM 37.4 °F 32.1 °F 19.4 °F 48% 29.92 in 10.0 mi SW 6.9 mph - N/A   Clear
7:15 PM 37.4 °F 32.1 °F 17.6 °F 45% 29.92 in 10.0 mi SW 6.9 mph - N/A   Clear
7:35 PM 37.4 °F 32.1 °F 17.6 °F 45% 29.92 in 10.0 mi SW 6.9 mph - N/A   Clear
7:55 PM 35.6 °F 30.7 °F 19.4 °F 52% 29.92 in 10.0 mi WSW 5.8 mph - N/A   Clear
8:15 PM 35.6 °F 31.7 °F 19.4 °F 52% 29.93 in 10.0 mi WSW 4.6 mph - N/A   Clear
8:35 PM 35.6 °F 30.7 °F 19.4 °F 52% 29.93 in 10.0 mi WSW 5.8 mph - N/A   Clear
8:55 PM 35.6 °F 31.7 °F 19.4 °F 52% 29.93 in 10.0 mi WSW 4.6 mph - N/A   Clear
9:15 PM 35.6 °F 31.7 °F 19.4 °F 52% 29.94 in 10.0 mi WSW 4.6 mph - N/A   Clear
9:55 PM 33.8 °F 29.6 °F 19.4 °F 56% 29.94 in 10.0 mi SSW 4.6 mph - N/A   Clear
10:15 PM 30.2 °F 25.4 °F 15.8 °F 55% 29.94 in 10.0 mi SW 4.6 mph - N/A   Clear
10:35 PM 32.0 °F 27.5 °F 19.4 °F 60% 29.95 in 10.0 mi WSW 4.6 mph - N/A   Clear
10:55 PM 30.2 °F 25.4 °F 17.6 °F 60% 29.95 in 10.0 mi WSW 4.6 mph - N/A   Clear
11:15 PM 30.2 °F 26.7 °F 19.4 °F 64% 29.95 in 10.0 mi West 3.5 mph - N/A   Clear
11:35 PM 30.2 °F 24.3 °F 19.4 °F 64% 29.96 in 10.0 mi WSW 5.8 mph - N/A   Clear
11:55 PM 32.0 °F 26.4 °F 19.4 °F 60% 29.96 in 10.0 mi WSW 5.8 mph - N/A   Clear